Orebro current weather conditions

sailwx.info

Wind from 040 at 5 knots

Air temperature -0.0° C
Visibility: greater than 2.0 NM
Dewpoint -0.0° C
Present weather: Light rain snow.

Last reported at 2016-Dec-10 16:20 UTC.
Time now 2016-Dec-10 18:36 UTC

Location: N 59°13' E 015°02'.
View on Google Maps.

See reports from other nearby stations

  
Tides and Currents Weather Stations Pressure Air Temp Water Temp Dewpoint Dewpoint Depression Visibility Wind Speed Wind Dir Waves Ship Positions
date/time (UTC)wind fromknots sea level pressurealtimeterstation pressurevisibilityair tempwater tempwave heightnotes
2016-Dec-10 17:20 040 5 1.0-0.0 Light snow.
2016-Dec-10 16:50 030 6 0.6-0.0 Light snow.
2016-Dec-10 16:20 040 5 2.0-0.0 Light rain snow.
2016-Dec-10 15:50 050 5 1.5-0.0 Light snow.
2016-Dec-10 15:20 050 5 1.1-0.0 Light snow.
2016-Dec-10 14:50 050 5 1.2-0.0 Light snow.
2016-Dec-10 14:20 050 6 1.6-0.0 Light snow.
2016-Dec-10 13:50 050 6 1.0-0.0 Light snow.
2016-Dec-10 13:20 050 6 2.7-0.0 Mist.
2016-Dec-10 12:50 060 6 3.8 1.0 Precipitation.
2016-Dec-10 12:20 050 6 2.7 1.0 Light snow.
2016-Dec-10 11:50 040 5 2.7 1.0 Light snow.
2016-Dec-10 11:20 060 6 1.3 1.0 Light snow.
2016-Dec-10 10:50 060 6 2.2 1.0 Precipitation.
2016-Dec-10 10:20 060 6 1.9 1.0 Light rain.
2016-Dec-10 09:50 070 6 2.0 1.0 Light rain.
2016-Dec-10 09:20 060 6 1.5 1.0 Drizzle.
2016-Dec-10 08:50 060 6 1.5 1.0 Light drizzle. Mist.
2016-Dec-10 08:20 050 6 1.7 1.0 Mist.
2016-Dec-10 07:50 070 6 3.2 1.0 Light drizzle.
2016-Dec-10 07:20 060 6 4.3 1.0 Snow grains.
2016-Dec-10 06:50 050 6 5.4 1.0 Precipitation.
2016-Dec-10 06:20 050 6 2.7 1.0 Precipitation.
2016-Dec-10 05:50 050 6 1.8 1.0 Light snow.
2016-Dec-10 05:20 040 6 2.5 1.0 Light rain snow.
2016-Dec-10 04:50 040 6 5.4 2.0 Rain.
2016-Dec-10 04:20 040 7 3.8 2.0 Light rain.
2016-Dec-10 03:50 050 6 3.8 2.0 Light rain.
2016-Dec-10 03:20 060 6 4.9 2.0 Light rain.
2016-Dec-10 02:50 050 7 5.4 2.0 Light rain.
2016-Dec-10 02:20 070 7 4.9 3.0 Light rain.
2016-Dec-10 01:50 030 6 4.3 4.0 Drizzle.
2016-Dec-10 01:20 4.3 4.0 Drizzle.
2016-Dec-10 00:50 4.3 4.0 Light rain.
2016-Dec-10 00:20 220 5 5.4 3.0 Light drizzle.
2016-Dec-09 23:50 220 5 5.4 3.0
2016-Dec-09 23:20 200 4 5.4 3.0
2016-Dec-09 22:50 210 2 5.4 4.0
2016-Dec-09 22:20 250 6 5.4 4.0
2016-Dec-09 21:50 240 6 5.4 4.0
2016-Dec-09 21:20 230 6 5.4 4.0
2016-Dec-09 20:50 220 7 5.4 2.0
2016-Dec-09 20:20 220 7 5.4 2.0
2016-Dec-09 19:50 210 8 5.4 2.0
2016-Dec-09 19:20 220 7 5.4 2.0
2016-Dec-09 18:50 230 8 5.4 4.0
2016-Dec-09 18:20 240 8 5.4 5.0
2016-Dec-09 17:50 250 6 5.4 6.0
2016-Dec-09 17:20 260 8 5.4 6.0
2016-Dec-09 16:50 280 9 5.4 6.0
2016-Dec-09 16:20 270 11 5.4 6.0
2016-Dec-09 15:50 270 9 5.4 7.0
2016-Dec-09 15:20 260 11 5.4 7.0
2016-Dec-09 14:50 260 11 5.4 7.0
2016-Dec-09 14:20 250 9 5.4 7.0
2016-Dec-09 13:50 250 12 5.4 7.0
2016-Dec-09 13:20 260 9 5.4 8.0
2016-Dec-09 12:50 240 9 5.4 8.0
2016-Dec-09 12:20 260 8 5.4 8.0
2016-Dec-09 11:50 250 11 5.4 8.0
2016-Dec-09 11:20 260 11 5.4 8.0
2016-Dec-09 10:50 260 12 5.4 8.0
2016-Dec-09 10:20 260 13 5.4 8.0
2016-Dec-09 09:50 250 13 5.4 8.0
2016-Dec-09 09:20 250 13 5.4 7.0
2016-Dec-09 08:50 240 12 5.4 7.0
2016-Dec-09 08:20 240 13 5.4 7.0
2016-Dec-09 07:50 230 11 5.4 7.0
2016-Dec-09 07:20 250 8 5.4 7.0
2016-Dec-09 06:50 250 12 5.4 7.0
2016-Dec-09 06:20 260 7 5.4 7.0
2016-Dec-09 05:50 250 11 5.4 7.0
2016-Dec-09 05:20 230 11 5.4 7.0
2016-Dec-09 04:50 240 9 5.4 7.0
2016-Dec-09 04:20 240 9 5.4 7.0
2016-Dec-09 03:50 220 9 5.4 6.0
2016-Dec-09 03:20 220 11 5.4 6.0
2016-Dec-09 02:50 220 9 5.4 6.0
2016-Dec-09 02:20 220 9 5.4 6.0
2016-Dec-09 01:50 240 6 5.4 6.0
2016-Dec-09 01:20 220 6 5.4 6.0
2016-Dec-09 00:50 230 6 5.4 6.0
2016-Dec-09 00:20 230 6 5.4 6.0
2016-Dec-08 23:50 230 8 5.4 6.0
2016-Dec-08 23:20 250 8 5.4 6.0
2016-Dec-08 22:50 230 8 5.4 5.0
2016-Dec-08 22:20 190 6 5.4 6.0
2016-Dec-08 21:50 240 9 5.4 6.0
2016-Dec-08 21:20 270 9 5.4 8.0
2016-Dec-08 20:50 250 7 5.4 8.0
2016-Dec-08 20:20 260 7 5.4 8.0
2016-Dec-08 19:20 290 12 5.410.0
2016-Dec-08 18:50 270 13 5.410.0
2016-Dec-08 18:20 270 13 5.410.0